Regional Weather Roundup
Issued by NWS

Home | Current Version | Previous Version | Graphics & Text | Print | Product List | Glossary On
Versions: 1 2 3 4 5 6 7 8 9 10 11 12 13 14 15 16 17 18 19 20 21 22 23 24 25 26 27
000
ASUS45 KSLC 270110
RWRUT

UTAH REGIONAL WEATHER ROUNDUP
NATIONAL WEATHER SERVICE SALT LAKE CITY UT
700 PM MDT MON SEP 26 2016

UTZ001>011-023>025-270200-

NORTHERN UTAH

CITY           SKY/WX    TMP DP  RH WIND       PRES   REMARKS
BRIGHAM CITY     N/A     71  47  41 S5        30.27S
HILL AFB         N/A     66  51  58 W6        30.29F
LOGAN          PTCLDY    71  44  37 CALM      30.27F
OGDEN          CLEAR     66  51  58 W5        30.27F
PROVO AIRPORT  CLEAR     66  45  45 VRB6      30.28F
SALT LAKE CITY PTCLDY    68  48  48 W8        30.26F
VERNAL         CLEAR     63  46  54 CALM      30.31F
WENDOVER       CLEAR     70  41  35 SE3       30.29S
HEBER CITY     CLEAR     68  37  32 SW9       30.27S
WEST JORDAN    CLEAR     65  48  53 NW5       30.29S

$$

UTZ012>022-026-027-270200-

SOUTHERN/CENTRAL UTAH

CITY           SKY/WX    TMP DP  RH WIND       PRES   REMARKS
BLANDING       CLEAR     71  33  24 SW3       30.36F
BRYCE CANYON   CLEAR     62  31  31 S6        30.41S
CEDAR CITY     CLEAR     70  36  28 N5        30.26F
DELTA          CLEAR     70  36  28 NW5       30.26F
MILFORD        CLEAR     73  36  25 N10       30.25F
MOAB/CYNLANDS  CLEAR     73  34  23 NW7       30.23S
PRICE          CLEAR     68  34  28 S3        30.32F
ST GEORGE      CLEAR     86  36  16 N5        30.10F

$$

REGIONAL REPORTS     COLORADO/ARIZONA

CITY           SKY/WX    TMP DP  RH WIND       PRES   REMARKS
CRAIG, CO      CLEAR     61  34  36 CALM      30.36S
GRAND JUNCTION CLEAR     70  36  28 NW5       30.24F
RIFLE          CLEAR     69  38  32 W9        30.27F
MONTROSE       CLEAR     67  37  33 N3        30.31S
CORTEZ         CLEAR     65  42  43 S8        30.29S
PAGE, AZ       CLEAR     77  32  19 N5        30.20F
GRAND CANYON     N/A     65  34  31 NE8       30.33F
KINGMAN        CLEAR     85  33  15 N17       30.06F
FLAGSTAFF      MOCLDY    64  25  22 E6        30.31S

$$

REGIONAL REPORTS    NEVADA/IDAHO/WYOMING

CITY           SKY/WX    TMP DP  RH WIND       PRES   REMARKS
LAS VEGAS, NV  PTCLDY    90  28  11 E7        30.02F
ELY            CLEAR     72  31  22 N9        30.31F
ELKO           CLEAR     79  36  21 NE9       30.23F
POCATELLO, ID  CLOUDY    68  49  50 NW5       30.28F
BURLEY         MOCLDY    70  45  40 NE7       30.23F
EVANSTON, WY   CLEAR     64  34  32 N3        30.40S
ROCK SPRINGS   CLEAR     62  37  39 CALM      30.39S

$$




USA.gov is the U.S. government's official web portal to all federal, state and local government web resources and services.